KD9NSC Weather Reports


Display with metric or nautical units.
time (UTC)temp
F
wind
direction
speed
MPH
gust
MPH
rain 1hr
in
rain 24hr
in
rain mn
in
humidity
%
barometer
mb
20260505152910 54 334 0.0 0.0 0.00 0.04 0.04 77 1011.2
20260505152407 53 358 0.0 0.0 0.00 0.04 0.04 80 1011.1
20260505151902 53 314 0.0 0.0 0.00 0.04 0.04 86 1011.1
20260505151359 50 314 0.0 0.0 0.00 0.04 0.04 85 1011.1
20260505150855 49 314 0.0 0.0 0.00 0.04 0.04 90 1011.1
20260505150352 47 320 0.0 0.0 0.00 0.04 0.04 91 1011.2
20260505140317 45 301 0.0 0.0 0.07 0.03 0.03 93 1011.9
20260505130240 45 299 0.0 0.0 0.00 0.00 0.00 87 1010.3
20260505124731 46 301 0.0 0.0 0.00 0.00 0.00 82 1010.7
20260505124228 47 311 0.0 0.0 0.00 0.00 0.00 83 1010.6
20260505123723 47 310 0.0 0.0 0.00 0.00 0.00 80 1010.7
20260505123220 47 320 0.0 0.0 0.00 0.00 0.00 81 1010.4
20260505122717 47 318 0.0 0.0 0.00 0.00 0.00 81 1010.4
20260505122214 47 312 0.0 0.0 0.00 0.00 0.00 83 1010.1
20260505121711 47 315 0.0 0.0 0.00 0.00 0.00 84 1010.2
20260505121207 47 316 0.0 0.0 0.00 0.00 0.00 84 1010.0
20260505120704 47 344 0.0 0.0 0.00 0.00 0.00 84 1009.9
20260505120200 47 344 0.0 0.0 0.00 0.00 0.00 85 1009.4
20260505115653 47 344 0.0 0.0 0.00 0.00 0.00 86 1009.3
20260505115151 47 344 0.0 0.0 0.00 0.00 0.00 86 1009.2
20260505114648 48 344 0.0 0.0 0.00 0.00 0.00 86 1009.5
20260505114144 47 344 0.0 0.0 0.00 0.00 0.00 87 1009.5
20260505113641 47 344 0.0 0.0 0.00 0.00 0.00 87 1009.2
20260505113137 47 344 0.0 0.0 0.00 0.00 0.00 88 1008.8
20260505112634 47 345 0.0 0.0 0.00 0.00 0.00 87 1008.6
20260505112132 46 345 0.0 0.0 0.00 0.00 0.00 88 1008.3
20260505111626 47 345 0.0 0.0 0.00 0.00 0.00 89 1008.2
20260505111122 46 345 0.0 0.0 0.00 0.00 0.00 89 1008.5
20260505110618 46 345 0.0 0.0 0.00 0.00 0.00 88 1008.7
20260505110115 46 345 0.0 0.0 0.00 0.00 0.00 89 1008.5
20260505102051 47 345 0.0 0.0 0.00 0.00 0.00 88 1008.2
20260505101549 47 345 0.0 0.0 0.00 0.00 0.00 90 1008.2
20260505101045 47 345 0.0 0.0 0.00 0.00 0.00 91 1008.6
20260505100542 47 345 0.0 0.0 0.00 0.00 0.00 90 1008.2
20260505100039 47 345 0.0 0.0 0.00 0.00 0.00 92 1007.9
20260505095535 47 345 0.0 0.0 0.00 0.00 0.00 92 1008.0
20260505095032 47 345 0.0 0.0 0.00 0.00 0.00 90 1008.1
20260505094528 47 345 0.0 0.0 0.00 0.00 0.00 92 1008.0
20260505094025 47 345 0.0 0.0 0.00 0.00 0.00 93 1008.0
20260505093521 47 345 0.0 0.0 0.00 0.00 0.00 93 1007.9
20260505093018 48 345 0.0 0.0 0.00 0.00 0.00 94 1007.9
20260505092516 48 345 0.0 0.0 0.00 0.00 0.00 94 1007.7
20260505092014 48 345 0.0 0.0 0.00 0.00 0.00 95 1007.2
20260505091511 48 345 0.0 0.0 0.00 0.00 0.00 95 1007.4
20260505091009 48 345 0.0 0.0 0.00 0.00 0.00 95 1007.3
20260505090507 48 345 0.0 0.0 0.00 0.00 0.00 96 1007.0
20260505090004 48 345 0.0 0.0 0.00 0.00 0.00 96 1006.9
20260505085502 49 345 0.0 0.0 0.00 0.00 0.00 97 1006.7
20260505085000 49 3 0.0 0.0 0.00 0.00 0.00 97 1006.7
20260505084458 49 3 0.0 0.0 0.00 0.00 0.00 97 1006.3
20260505083955 50 3 0.0 0.0 0.00 0.00 0.00 97 1006.2
20260505083452 50 3 0.0 0.0 0.00 0.00 0.00 98 1006.2
20260505082949 50 3 0.0 0.0 0.00 0.00 0.00 98 1006.1
20260505082444 50 2 0.0 0.0 0.00 0.00 0.00 98 1006.0
20260505081942 51 2 0.0 0.0 0.00 0.00 0.00 98 1006.2
20260505081438 50 2 0.0 0.0 0.00 0.00 0.00 98 1006.0
20260505080935 51 2 0.0 0.0 0.00 0.00 0.00 98 1005.6
20260505080431 51 2 0.0 0.0 0.00 0.00 0.00 98 1005.4
20260505075927 51 2 0.0 0.0 0.00 0.00 0.00 98 1005.4
20260505075424 51 2 0.0 0.0 0.00 0.00 0.00 98 1005.4
20260505074921 52 2 0.0 0.0 0.00 0.00 0.00 98 1005.1
20260505074418 53 2 0.0 0.0 0.00 0.00 0.00 98 1004.9
20260505073915 53 2 0.0 0.0 0.00 0.00 0.00 98 1004.5
20260505073413 53 2 0.0 0.0 0.00 0.00 0.00 98 1004.6
20260505072910 53 2 0.0 0.0 0.00 0.00 0.00 98 1004.8
20260505072406 53 2 0.0 0.0 0.00 0.00 0.00 98 1004.9
20260505071902 53 2 0.0 0.0 0.00 0.00 0.00 98 1004.7
20260505071358 53 2 0.0 0.0 0.00 0.00 0.00 98 1004.7
20260505070857 53 2 0.0 0.0 0.00 0.00 0.00 98 1004.6
20260505070353 53 2 0.0 0.0 0.00 0.00 0.00 98 1004.6
20260505065848 53 2 0.0 0.0 0.00 0.00 0.00 98 1004.4
20260505065346 54 2 0.0 0.0 0.00 0.00 0.00 98 1004.4
20260505064842 54 2 0.0 0.0 0.00 0.00 0.00 98 1004.3
20260505064339 54 2 0.0 0.0 0.00 0.00 0.00 98 1004.0
20260505063838 54 2 0.0 0.0 0.00 0.00 0.00 98 1004.1
20260505063333 55 2 0.0 0.0 0.00 0.00 0.00 98 1004.0
20260505062830 55 2 0.0 0.0 0.00 0.00 0.00 98 1004.0
20260505062328 55 2 0.0 0.0 0.00 0.00 0.00 98 1004.0
20260505061824 55 2 0.0 0.0 0.00 0.00 0.00 98 1004.1
20260505061322 55 2 0.0 0.0 0.00 0.00 0.00 98 1003.8
20260505060819 55 2 0.0 0.0 0.00 0.00 0.00 98 1003.9
20260505060316 55 2 0.0 0.0 0.00 0.00 0.00 98 1003.6
20260505055812 55 2 0.0 0.0 0.00 0.00 0.00 98 1003.5
20260505055308 55 2 0.0 0.0 0.00 0.00 0.00 98 1003.5
20260505054806 55 2 0.0 0.0 0.00 0.00 0.00 98 1003.5
20260505054303 55 2 0.0 0.0 0.00 0.00 0.00 98 1003.5
20260505053801 55 2 0.0 0.0 0.00 0.00 0.00 98 1003.7
20260505053258 55 2 0.0 0.0 0.00 0.00 0.00 98 1003.6
20260505052754 55 2 0.0 0.0 0.00 0.00 0.00 98 1003.6
20260505052252 55 2 0.0 0.0 0.00 0.00 0.00 98 1003.4
20260505051748 55 2 0.0 0.0 0.00 0.00 0.00 98 1003.7
20260505051246 55 2 0.0 0.0 0.00 0.00 0.00 98 1003.4
20260505050744 55 2 0.0 0.0 0.00 0.00 0.00 98 1003.4
20260505050243 56 2 0.0 0.0 0.00 0.00 0.00 98 1003.3
20260505041712 56 2 0.0 0.0 0.00 0.31 0.31 98 1003.0
20260505041209 56 2 0.0 0.0 0.00 0.31 0.31 98 1002.9
20260505040707 56 2 0.0 0.0 0.00 0.31 0.31 97 1003.0
20260505040204 56 2 0.0 0.0 0.00 0.31 0.31 97 1002.9
20260505035701 56 2 0.0 0.0 0.00 0.31 0.31 97 1002.8
20260505035156 56 2 0.0 0.0 0.00 0.31 0.31 97 1002.0
20260505034653 56 2 0.0 0.0 0.00 0.31 0.31 97 1001.9
20260505034150 56 2 0.0 0.0 0.00 0.31 0.31 97 1002.0
20260505033646 56 2 0.0 0.0 0.00 0.31 0.31 97 1001.7
20260505033145 56 2 0.0 0.0 0.00 0.31 0.31 97 1002.0
20260505032642 56 2 0.0 0.0 0.00 0.31 0.31 97 1001.7
20260505032133 56 2 0.0 0.0 0.00 0.31 0.31 97 1001.9
20260505031630 56 2 0.0 0.0 0.00 0.31 0.31 97 1001.9
20260505031126 56 2 0.0 0.0 0.00 0.31 0.31 97 1002.4
20260505030624 57 2 0.0 0.0 0.07 0.31 0.31 97 1002.3
20260505030120 57 2 0.0 0.0 0.07 0.31 0.31 97 1002.5
20260505025615 57 356 0.0 0.0 0.00 0.30 0.30 97 1002.7
20260505025114 57 356 0.0 0.0 0.05 0.30 0.30 97 1002.7
20260505024611 57 349 0.0 0.0 0.05 0.30 0.30 97 1003.0
20260505024109 57 353 0.0 0.0 0.07 0.29 0.29 97 1003.4
20260505023606 57 334 0.0 0.0 0.07 0.29 0.29 97 1003.1
20260505023103 57 309 0.0 0.0 0.00 0.28 0.28 97 1002.6
20260505022600 57 329 0.0 0.0 0.00 0.28 0.28 97 1002.3
20260505022057 57 349 0.0 0.0 0.00 0.28 0.28 97 1002.1
20260505021554 57 339 0.0 0.0 0.00 0.28 0.28 97 1001.9
20260505021051 57 325 0.0 0.0 0.00 0.28 0.28 97 1002.1
20260505020550 57 340 0.0 0.0 0.00 0.28 0.28 97 1002.6
20260505020048 58 335 0.0 0.0 0.00 0.28 0.28 97 1002.3
20260505015545 59 321 0.0 0.0 0.00 0.28 0.28 97 1002.0
20260505015041 59 337 0.0 0.0 0.00 0.28 0.28 97 1002.0
20260505014538 59 352 0.0 0.0 0.00 0.28 0.28 97 1001.8
20260505014036 59 353 0.0 0.0 0.00 0.28 0.28 97 1001.5
20260505013532 59 352 0.0 0.0 0.00 0.28 0.28 97 1001.5
20260505013030 59 330 0.0 0.0 0.05 0.28 0.28 97 1001.8
20260505012528 58 330 0.0 0.0 0.05 0.28 0.28 96 1002.6
20260505012025 58 324 0.0 0.0 0.07 0.27 0.27 96 1002.4
20260505011520 58 322 0.0 0.0 0.12 0.27 0.27 96 1002.6
20260505011018 57 332 0.0 0.0 0.12 0.27 0.27 96 1002.3
20260505010513 57 327 0.0 0.0 0.00 0.25 0.25 96 1002.0
20260505010010 57 327 0.0 0.0 0.00 0.25 0.25 96 1002.0
20260505005506 57 327 0.0 0.0 0.00 0.25 0.25 96 1002.1
20260505005004 58 319 0.0 0.0 0.00 0.25 0.25 96 1002.3
20260505004501 58 321 0.0 0.0 0.00 0.25 0.25 96 1002.0
20260505003958 59 327 0.0 0.0 0.00 0.25 0.25 96 1002.1
20260505003455 59 331 0.0 0.0 0.00 0.25 0.25 96 1001.3
20260505002950 59 356 0.0 0.0 0.00 0.25 0.25 96 1000.4
20260505002447 59 356 0.0 0.0 0.00 0.25 0.25 96 1000.5
20260505001945 59 355 0.0 0.0 0.00 0.25 0.25 95 1000.3
20260505001442 60 339 0.0 0.0 0.00 0.25 0.25 95 999.7
20260505000939 60 342 0.0 0.0 0.00 0.25 0.25 95 999.7
20260505000437 60 345 0.0 0.0 0.07 0.25 0.25 95 999.4
20260504235934 59 336 0.0 0.0 0.07 0.25 0.25 95 999.6
20260504235431 60 342 0.0 0.0 0.00 0.24 0.24 94 1000.3
20260504234927 59 342 0.0 0.0 0.17 0.24 0.24 93 1000.4
20260504234425 60 332 0.0 0.0 0.59 0.24 0.24 93 1000.4
20260504233921 60 333 0.0 0.0 0.94 0.22 0.22 92 1001.1
20260504233417 62 350 0.0 0.0 0.83 0.17 0.17 90 1001.7
20260504232914 63 338 0.0 1.0 0.38 0.06 0.06 86 1001.7
20260504232411 66 324 0.0 0.0 0.19 0.03 0.03 82 1001.5
20260504231908 68 329 0.0 0.0 0.00 0.00 0.00 73 1001.0
20260504231404 69 333 0.0 0.0 0.00 0.00 0.00 70 1001.2
20260504230901 70 357 0.0 0.0 0.00 0.00 0.00 65 1000.6
20260504230358 70 326 0.0 0.0 0.00 0.00 0.00 63 1000.5
20260504225857 71 330 0.0 0.0 0.00 0.00 0.00 60 1000.6
20260504225353 71 340 0.0 0.0 0.00 0.00 0.00 63 1000.4
20260504224851 72 321 1.0 1.0 0.00 0.00 0.00 61 1000.4
20260504224347 73 349 0.0 1.0 0.00 0.00 0.00 53 1000.4
20260504223844 73 329 0.0 1.0 0.00 0.00 0.00 52 1000.3
20260504223339 74 1 0.0 1.0 0.00 0.00 0.00 53 1000.1
20260504222836 74 341 0.0 0.0 0.00 0.00 0.00 52 1000.0
20260504222333 74 22 0.0 0.0 0.00 0.00 0.00 51 1000.2
20260504221832 75 9 0.0 1.0 0.00 0.00 0.00 51 1000.0
20260504221328 74 16 0.0 0.0 0.00 0.00 0.00 52 1000.1
20260504220825 75 29 0.0 1.0 0.00 0.00 0.00 54 1000.2
20260504220322 75 55 0.0 1.0 0.00 0.00 0.00 54 1000.4
20260504215819 75 352 0.0 0.0 0.00 0.00 0.00 54 1000.5
20260504215315 75 288 1.0 1.0 0.00 0.00 0.00 58 1000.3
20260504214811 75 37 0.0 0.0 0.00 0.00 0.00 52 1000.5
20260504214309 75 99 1.0 1.0 0.00 0.00 0.00 52 1000.5
20260504213805 75 54 0.0 1.0 0.00 0.00 0.00 52 1000.6
20260504213301 75 12 1.0 1.0 0.00 0.00 0.00 54 1000.7
20260504212759 76 312 0.0 0.0 0.00 0.00 0.00 56 1000.8
20260504212255 77 8 0.0 1.0 0.00 0.00 0.00 47 1000.7
20260504211752 77 24 0.0 1.0 0.00 0.00 0.00 44 1000.8
20260504211248 78 346 0.0 0.0 0.00 0.00 0.00 43 1000.7
20260504210746 78 350 1.0 1.0 0.00 0.00 0.00 44 1000.7
20260504210243 78 318 0.0 1.0 0.00 0.00 0.00 43 1000.9
20260504205740 78 59 0.0 1.0 0.00 0.00 0.00 44 1000.9
20260504205238 79 358 0.0 0.0 0.00 0.00 0.00 41 1000.9
20260504204736 79 333 0.0 0.0 0.00 0.00 0.00 43 1000.8
20260504204234 80 320 0.0 0.0 0.00 0.00 0.00 39 1001.0
20260504203733 80 322 0.0 0.0 0.00 0.00 0.00 39 1001.1
20260504203229 79 324 0.0 0.0 0.00 0.00 0.00 39 1000.9
20260504202729 78 323 0.0 0.0 0.00 0.00 0.00 41 1001.0
20260504202227 78 338 0.0 0.0 0.00 0.00 0.00 41 1001.0
20260504201724 78 328 0.0 0.0 0.00 0.00 0.00 44 1001.1
20260504201221 78 327 0.0 0.0 0.00 0.00 0.00 41 1001.3
20260504200719 79 309 0.0 0.0 0.00 0.00 0.00 43 1001.1
20260504200214 79 328 0.0 0.0 0.00 0.00 0.00 39 1001.2
20260504195711 79 324 1.0 1.0 0.00 0.00 0.00 39 1001.3
20260504195207 80 346 0.0 0.0 0.00 0.00 0.00 39 1001.3
20260504194704 80 356 0.0 1.0 0.00 0.00 0.00 39 1001.4
20260504194200 81 2 0.0 0.0 0.00 0.00 0.00 38 1001.4
20260504193657 81 345 0.0 0.0 0.00 0.00 0.00 41 1001.5
20260504193155 81 340 0.0 0.0 0.00 0.00 0.00 38 1001.4
20260504192652 81 353 0.0 0.0 0.00 0.00 0.00 38 1001.7
20260504192150 81 320 0.0 1.0 0.00 0.00 0.00 35 1001.6
20260504191649 81 325 0.0 0.0 0.00 0.00 0.00 37 1001.9
20260504191144 80 350 0.0 0.0 0.00 0.00 0.00 39 1001.7
20260504190641 80 325 0.0 0.0 0.00 0.00 0.00 42 1001.8
20260504190137 80 328 0.0 0.0 0.00 0.00 0.00 37 1001.9
20260504185634 80 317 0.0 0.0 0.00 0.00 0.00 40 1001.8
20260504185130 80 1 0.0 0.0 0.00 0.00 0.00 41 1001.8
20260504184626 80 355 0.0 0.0 0.00 0.00 0.00 40 1002.1
20260504184121 80 337 0.0 0.0 0.00 0.00 0.00 39 1002.3
20260504183619 80 349 1.0 2.0 0.00 0.00 0.00 40 1002.5
20260504183117 81 335 0.0 0.0 0.00 0.00 0.00 42 1002.3
20260504182614 81 330 0.0 0.0 0.00 0.00 0.00 40 1002.1
20260504182111 80 323 0.0 0.0 0.00 0.00 0.00 40 1002.3
20260504181609 80 339 1.0 1.0 0.00 0.00 0.00 40 1002.1
20260504181106 79 6 0.0 0.0 0.00 0.00 0.00 42 1002.5
20260504180605 78 313 0.0 0.0 0.00 0.00 0.00 42 1002.5
20260504180104 79 347 0.0 1.0 0.00 0.00 0.00 43 1002.7
20260504175600 79 315 0.0 0.0 0.00 0.00 0.00 42 1002.8
20260504175057 80 352 0.0 0.0 0.00 0.00 0.00 43 1002.8
20260504174555 80 6 0.0 0.0 0.00 0.00 0.00 43 1002.8
20260504174051 81 324 0.0 0.0 0.00 0.00 0.00 42 1002.8
20260504173548 81 4 0.0 0.0 0.00 0.00 0.00 44 1003.0
20260504173046 80 332 0.0 0.0 0.00 0.00 0.00 43 1003.1
20260504172542 80 73 1.0 1.0 0.00 0.00 0.00 45 1003.1
20260504172038 81 306 0.0 0.0 0.00 0.00 0.00 43 1003.2
20260504171535 81 337 0.0 0.0 0.00 0.00 0.00 42 1003.3
20260504171032 80 340 0.0 0.0 0.00 0.00 0.00 46 1003.3
20260504170528 81 334 0.0 1.0 0.00 0.00 0.00 45 1003.5